Regional Weather Roundup
Issued by NWS

Home | Current Version | Previous Version | Graphics & Text | Print | Product List | Glossary On
Versions: 1 2 3 4 5 6 7 8 9 10 11 12 13 14 15 16 17 18 19 20 21 22 23 24 25 26 27 28 29 30 31 32 33 34 35 36 37 38 39 40 41 42 43 44 45 46 47 48 49 50
000
ASUS43 KTOP 280759
RWRKS

WEATHER ROUNDUP FOR KANSAS
NATIONAL WEATHER SERVICE GOODLAND KS
300 AM CDT SAT MAY 28 2016

NOTE:  "FAIR" INDICATES FEW OR NO CLOUDS BELOW 12,000 FEET WITH NO
SIGNIFICANT WEATHER AND/OR OBSTRUCTIONS TO VISIBILITY.

KSZ001>006-013>018-027>032-041>047-280900-
NORTHWEST KANSAS

CITY           SKY/WX    TMP DP  RH WIND       PRES   REMARKS
GOODLAND       CLEAR     47  45  93 W12       29.88R
HAYS           CLOUDY    55  48  76 SW6       29.78R
HILL CITY      MOCLDY    57  53  86 NW13      29.79F
RUSSELL        CLOUDY    56  55  97 NW7       29.76R
$$

KSZ061>065-074>080-084>089-280900-
SOUTHWEST KANSAS

CITY           SKY/WX    TMP DP  RH WIND       PRES   REMARKS
DODGE CITY     CLEAR     53  50  89 NW10      29.83R
ELKHART          N/A     51  43  74 W8          N/A
GARDEN CITY    CLEAR     51  46  83 NW10      29.85R
GREAT BEND     CLOUDY    57  50  77 W7        29.77R
LIBERAL        CLEAR     52  43  71 W9        29.88S
$$

KSZ066>073-081>083-090>101-280900-
SOUTHEAST KANSAS

CITY           SKY/WX    TMP DP  RH WIND       PRES   REMARKS
CHANUTE        CLEAR     60  58  92 SE9       29.75S
COFFEYVILLE    CLEAR     62  61  96 SE8       29.77R
HUTCHINSON     CLOUDY    60  56  86 NE8       29.72R
MEDICINE LODGE   N/A     60  55  83 NW10      29.74R
NEWTON         CLOUDY    61  55  82 E3        29.74S
PARSONS        CLEAR     62  60  93 SE7       29.77S
WICHITA INTL   PTCLDY    62  57  83 SW12      29.70R
WICHITA JABRA  CLEAR     61  58  90 S13       29.70R
WINFIELD       CLEAR     61  58  90 SW12      29.75R
$$

KSZ007>012-019>026-033>040-048>060-102>105-280900-
NORTHEAST KANSAS

CITY           SKY/WX    TMP DP  RH WIND       PRES   REMARKS
CONCORDIA      CLOUDY    58  56  93 E5        29.72S
EMPORIA        MOCLDY    60  57  89 CALM      29.73S
LAWRENCE         N/A     58  57  97 MISG      29.75R
MANHATTAN      CLOUDY    60  57  89 NW3       29.72F
OLATHE IND     PTCLDY    59  58  96 SE7       29.75F
OLATHE EXE     PTCLDY    57  56  96 SE6       29.75F
SALINA         CLOUDY    61  58  90 NE5       29.73R
TOPEKA BILLARD MOCLDY    60  58  92 CALM      29.74S
TOPEKA FORBES  MOCLDY    59  57  93 CALM      29.74S
$$




USA.gov is the U.S. government's official web portal to all federal, state and local government web resources and services.